Regional Weather Roundup
Issued by NWS

Home | Current Version | Previous Version | Graphics & Text | Print | Product List | Glossary On
Versions: 1 2 3 4 5 6 7 8 9 10 11 12 13 14 15 16 17 18 19 20 21 22 23 24 25 26 27 28 29 30 31 32 33 34 35 36 37 38 39 40 41 42 43 44 45 46 47 48 49 50
000
ASUS45 KCYS 231710
RWRWY

WYOMING REGIONAL WEATHER ROUNDUP
NATIONAL WEATHER SERVICE CHEYENNE WY
1100 AM MDT WED AUG 23 2017

NOTE:  "FAIR" INDICATES FEW OR NO CLOUDS BELOW 12,000 FEET
WITH NO SIGNIFICANT WEATHER AND/OR OBSTRUCTIONS TO VISIBILITY.

WYZ001-231800-
YELLOWSTONE NATIONAL PARK

CITY           SKY/WX    TMP DP  RH WIND       PRES   REMARKS
LK YELLOWSTONE   N/A     61  42  49 E3        30.39F
W YELLOWSTONE  NOT AVBL

$$
WYZ002>013-054>058-071-098>099-231800-
NORTHERN WYOMING

CITY           SKY/WX    TMP DP  RH WIND       PRES   REMARKS
JACKSON        PTSUNNY   62  37  39 S5        30.32F
CODY           FAIR      79  43  27 NE8       30.14F
GREYBULL       FAIR      75  40  28 VRB3      30.07F
WORLAND        FAIR      78  38  23 VRB3      30.09F
SHERIDAN       FAIR      82  40  22 N3        30.06F
BUFFALO        FAIR      83  34  17 E6        30.14S
GILLETTE       FAIR      84  40  21 VRB3      30.09F
HULETT         FAIR      81  45  28 N5        30.10F
NEWCASTLE      FAIR      79  46  31 S3        30.11F

$$
WYZ014>020-022>026-101>103-231800-
CENTRAL WYOMING

CITY           SKY/WX    TMP DP  RH WIND       PRES   REMARKS
BIG PINEY      CLOUDY    63  40  42 S9        30.35S
PINEDALE       FAIR      64  37  36 MISG      30.35S
DUBOIS         CLOUDY    73  28  19 N6        30.31S
LANDER           N/A    N/A N/A N/A MISG      30.19F
RIVERTON       FAIR      75  32  20 CALM      30.20S
CASPER         FAIR      81  39  22 SW17      30.18S
DOUGLAS        FAIR      77  48  35 VRB3      30.15F

$$
WYZ021-027>030-104>119-231800-
SOUTHERN WYOMING

CITY           SKY/WX    TMP DP  RH WIND       PRES   REMARKS
EVANSTON       FAIR      67  46  47 E15       30.38S
KEMMERER         N/A     61  45  55 SW9       30.41R
FORT BRIDGER   CLOUDY    62  51  66 SW12      30.42R
ROCK SPRINGS   FAIR     N/A N/A N/A MISG      30.34S
DIXON          FAIR      72  40  31 SW6       30.35S
RAWLINS        NOT AVBL
SARATOGA       FAIR      73  37  27 S6        30.34S
LARAMIE        FAIR      75  37  25 NW7       30.32F
CHEYENNE       FAIR      82  36  19 VRB5      30.23S
TORRINGTON     FAIR      76  55  48 VRB3      30.11F
PINE BLUFFS    FAIR      81  50  34 NE3       30.17F

$$



USA.gov is the U.S. government's official web portal to all federal, state and local government web resources and services.